Location: Rounton
(54.4000°N, 1.3500°W)
Time: 22:40:57
(UTC+00:00)

Explorer 7 - Pass Details

Date: 07 December 2021
Orbit: 483 x 674 km, 50.3° (Epoch: 17 January)

Event Time Altitude Azimuth Distance (km) Brightness Sun altitude
Rises 03:44:31 0° 189° (S) 2,873 - -37.3°
Reaches altitude 10° 03:48:56 10° 149° (SSE) 1,914 - -36.7°
Maximum altitude 03:49:40 10° 139° (SE) 1,879 - -36.6°
Drops below altitude 10° 03:50:24 10° 129° (SE) 1,894 - -36.5°
Exits shadow 03:51:15 - 118° (ESE) 1,970 10.1 -36.3°
Sets 03:54:37 0° 88° (E) 2,734 11.4 -35.9°
